Regional Weather Roundup
Issued by NWS Goodland, KS

Home | Current Version | Previous Version | Graphics & Text | Print | Product List | Glossary On
Versions: 1 2 3 4 5 6 7 8 9 10 11 12 13 14 15 16 17 18 19 20 21 22 23 24 25 26 27 28 29 30 31 32 33 34 35 36 37 38 39 40 41 42 43 44 45 46 47 48 49 50
000
ASUS43 KGLD 200008
RWRGLD

GOODLAND FORECAST AREA HOURLY WEATHER ROUNDUP
NATIONAL WEATHER SERVICE GOODLAND KS
600 PM MDT SUN OCT 19 2014

...OFFICIAL OBSERVATIONS...

CITY           SKY/WX    TMP DP  RH WIND       PRES   REMARKS
GOODLAND KS    CLEAR     63  44  50 E6        30.04R
HILL CITY KS   CLEAR     66  47  50 NE7       29.98R
IMPERIAL NEB   CLEAR     66  38  35 E6        30.02R
MCCOOK NEB     CLEAR     65  47  52 E6        30.00R
AKRON CO       CLEAR     66  38  35 E7        30.08R
BURLINGTON CO  CLEAR     66  39  37 E7        30.06R
LIMON CO       CLEAR     63  36  36 NE8       30.11R
$$

...UNOFFICIAL OBSERVATIONS...

CITY           SKY/WX    TMP DP  RH WIND       PRES   REMARKS
COLBY KS       CLEAR     63  48  59 N7        30.03R HAZE
GOVE KS          N/A     66  32  28 MISG        N/A
NORTON KS      CLEAR     64  45  48 CALM      29.99R
SHARON SPRINGS   N/A     69  45  41 CALM        N/A
TRIBUNE KS     CLEAR     66  52  59 NE7       30.04
TRENTON NEB      N/A     67  32  27 E7          N/A
KIT CARSON CO    N/A     71  42  35 CALM        N/A
YUMA CO          N/A     70  40  33 CALM        N/A
$$


USA.gov is the U.S. government's official web portal to all federal, state and local government web resources and services.